Regional Weather Roundup
Issued by NWS

Home | Current Version | Previous Version | Text Only | Print | Product List | Glossary On
Versions: 1 2 3 4 5 6 7 8 9 10 11 12 13 14 15 16 17 18 19 20 21 22 23 24 25 26 27 28 29 30 31 32 33 34 35 36 37 38 39 40 41 42 43 44 45 46 47 48 49 50
000
ASUS44 KFWD 231410
RWRTX
NORTH TEXAS HOURLY WEATHER ROUNDUP
NATIONAL WEATHER SERVICE FORT WORTH TX
900 AM CDT SUN APR 23 2017

NOTE: "FAIR" INDICATES FEW OR NO CLOUDS BELOW 12,000 FEET WITH NO
SIGNIFICANT WEATHER AND/OR OBSTRUCTIONS TO VISIBILITY.

TXZ118-119-231500-
DALLAS/FORT WORTH METROPLEX

CITY           SKY/WX    TMP DP  RH WIND       PRES   REMARKS
DFW AIRPORT    SUNNY     57  44  62 N15       30.16R
DALLAS LOVE    SUNNY     55  45  68 NW9       30.17R
FTW MEACHAM    SUNNY     55  43  63 NW10      30.18S
DAL-EXECUTIVE  SUNNY     55  46  71 NW12      30.16R
FTW-ALLIANCE   SUNNY     55  43  63 N9        30.18R
FTW-NAS-JRB    SUNNY     55  43  63 N14       30.19S
FTW-SPINKS     SUNNY     55  43  62 N9        30.20R
ARLINGTON      SUNNY     54  42  64 NW10      30.18R
GRAND PRAIRIE  SUNNY     54  41  62 NW3       30.19R
ADDISON        SUNNY     54  45  71 NW12      30.17S
MESQUITE       SUNNY     55  43  62 NW7       30.16S
LANCASTER      SUNNY     54  46  74 NW8       30.17S
$$

TXZ091>094-102>105-117-120-121-131>134-231500-
NORTH CENTRAL TEXAS

CITY           SKY/WX    TMP DP  RH WIND       PRES   REMARKS
SHRMAN/DENISON SUNNY     53  45  75 N9        30.18S
GAINESVILLE    SUNNY     53  42  68 N10       30.19S
BOWIE          SUNNY     52  44  72 NW8       30.20S
BRIDGEPORT     SUNNY     53  42  66 N6        30.22S
DECATUR        SUNNY     52  42  68 NW8       30.19
DENTON         SUNNY     54  45  71 N10       30.18R
MCKINNEY       SUNNY     54  46  74 NW9       30.16S
BONHAM         SUNNY     52  45  76 NW7       30.15S
GREENVILLE     SUNNY     55  45  67 N12       30.16R
ROCKWALL       SUNNY     56  45  67 NW12      30.16R
TERRELL        SUNNY     56  42  59 NW8       30.16R
WAXAHACHIE     SUNNY     54  46  73 NW7       30.18S
CLEBURNE       SUNNY     54  45  71 N15       30.20R
GRANBURY       SUNNY     54  43  66 NW10      30.22S
$$

TXZ083>090-098>101-113>116-127>130-139>142-154-155-231500-
WESTERN NORTH TEXAS

CITY           SKY/WX    TMP DP  RH WIND       PRES   REMARKS
WICHITA FALLS  SUNNY     53  40  61 NW12      30.21S
WF-KICKAPOO    SUNNY     52  39  61 NW9       30.23F
VERNON         SUNNY     53  35  49 NW14      30.25S
ABILENE        SUNNY     50  40  68 N7        30.25S
ABILENE-DYESS  SUNNY     53  38  56 N8        30.24S
GRAHAM         SUNNY     52  42  69 NW6       30.21S
BRECKENRIDGE   SUNNY     57  40  54 NW8       30.23S
CISCO          SUNNY     52  39  62 NW9       30.23S
RANGER         SUNNY     53  41  64 N12       30.23R
MINERAL WELLS  SUNNY     53  41  63 NW9       30.20R
STEPHENVILLE   SUNNY     54  39  57 NW9       30.23R
COMANCHE       SUNNY     53  42  64 N12       30.22S
BROWNWOOD      SUNNY     52  39  62 N8        30.23F
COLEMAN        SUNNY     55  37  50 N12       30.24S
$$

TXZ143>147-156>162-174-175-231500-
CENTRAL TEXAS

CITY           SKY/WX    TMP DP  RH WIND       PRES   REMARKS
WACO           SUNNY     56  44  64 N13G24    30.18R
WACO-MCGREGOR  SUNNY     55  43  63 NW12G18   30.18S
HILLSBORO      SUNNY     53  46  78 N13       30.18R
CORSICANA      SUNNY     57  45  64 N10       30.17R
MEXIA          SUNNY     55  43  65 N12G21    30.15R
HEARNE         SUNNY     54  47  77 NW12G18   30.17R
CAMERON        SUNNY     56  46  67 N13G20    30.17R
TEMPLE         SUNNY     55  43  63 N14G21    30.18S
KILLEEN        SUNNY     56  41  56 N16G22    30.18R
KILLEEN-SKYLRK SUNNY     56  42  59 N12       30.19S
FORT HOOD      SUNNY     56  42  60 N13       30.16R
GATESVILLE     SUNNY     54  43  66 N8        30.22R
HAMILTON       SUNNY     55  41  60 N13G20    30.21R
LAMPASAS       SUNNY     56  42  61 N5        30.19S
$$

TXZ095>097-106>112-122>126-135>138-148>153-164>167-231500-
EAST TEXAS

CITY           SKY/WX    TMP DP  RH WIND       PRES   REMARKS
PARIS          SUNNY     54  43  66 N10       30.12F
SULPHUR SPRNGS SUNNY     55  46  72 NW10      30.15S
MOUNT PLEASANT SUNNY     55  44  68 NW10      30.12S
GILMER         SUNNY     53  45  74 N5        30.11S
MINEOLA        SUNNY     55  45  67 N6        30.13R
TYLER          SUNNY     54  46  74 N10       30.13R
LONGVIEW       MOSUNNY   55  48  77 NW10      30.10R
MARSHALL       SUNNY     53  45  75 N7        30.11S
ATHENS         SUNNY     52  43  71 N10G17    30.13S
PALESTINE      SUNNY     52  48  85 N6        30.15S
JACKSONVILLE   SUNNY     51  46  83 N7        30.13S
HENDERSON      SUNNY     53  45  74 NW9       30.12S
CENTER         PTSUNNY   58  49  72 N12G20    30.10R
NACOGDOCHES    SUNNY     54  45  71 N12       30.08S
LUFKIN         SUNNY     53  45  74 N8        30.10R
$$

SUPPLEMENTAL OBSERVATIONS (CENTRAL)

CITY           SKY/WX    TMP DP  RH WIND       PRES   REMARKS
CADDO GRASSLND   N/A     55  45  67 NW3         N/A
PAT MAYSE LAKE   N/A     52  46  82 NW7         N/A
GREENVILLE       N/A     55  45  67 N9          N/A
CEDAR HILL       N/A     55  43  62 NW3         N/A
MCGREGOR         N/A     57  43  58 VRB8G17     N/A
TEMPLE           N/A     57  43  58 N5          N/A
$$

SUPPLEMENTAL OBSERVATIONS (WEST)

CITY           SKY/WX    TMP DP  RH WIND       PRES   REMARKS
MILLERS CREEK    N/A     54  39  58 NW7         N/A
POSSUM KINGDOM   N/A     54  41  62 NW8         N/A
LBJ GRASSLAND    N/A     54  43  66 NW6         N/A
GRANBURY         N/A     54  43  66 NW10        N/A
HAMBY            N/A     52  37  58 NW6         N/A
IVIE RESERVOIR   N/A     54  39  58 NW8         N/A
COLORADO BEND    N/A     55  41  58 N6          N/A
$$

SUPPLEMENTAL OBSERVATIONS (EAST)

CITY           SKY/WX    TMP DP  RH WIND       PRES   REMARKS
CLARKSVILLE      N/A     55  43  62 N12         N/A
TEXARKANA        N/A     55  45  67 N7          N/A
LINDEN           N/A     57  45  62 N2G12       N/A
GILMER           N/A     55  45  67 N7          N/A
HENDERSON        N/A     54  45  71 N9          N/A
LUFKIN           N/A     55  45  67 MISG        N/A
N SABINE NF      N/A     55  46  71 MISG        N/A
S SABINE NF      N/A     54  46  76 NW5         N/A
$$

SUPPLEMENTAL OBSERVATIONS ARE A COLLECTION OF AUTOMATED INSTRUMENTS
THAT ARE MAINTAINED BY A VARIETY OF FEDERAL AND STATE AGENCIES.
CERTAIN ELEMENTS...SUCH AS HUMIDITY VALUES AND SUSTAINED WIND
SPEEDS...MAY BE APPROXIMATED.





USA.gov is the U.S. government's official web portal to all federal, state and local government web resources and services.